Powrót do katalogu

KUIPER-00203

AktywnyŁącznośćLEO
NORAD 67773·PAYLOAD·🇺🇸 United States

Wystrzelony Feb 12, 2026 z Guiana Space Centre

Loading…

Następne Przeloty (najbliższe 24 godziny)

TLE

ŚwieżeSource: CelesTrak SupGP

Epoka: Sep 15, 2026, 01:50 UTC

1 67773C 26030K   26258.07684028  .00006639  00000+0  86891-3 0  2585
2 67773  51.9046 100.7370 0001085 102.5356 126.4942 14.79929437    15

Śledź KUIPER-00203 w czasie rzeczywistym z AllMySat

Download on the App Store